| time (UTC) | temp F | wind direction | speed MPH | gust MPH | rain 1hr in | rain 24hr in | rain mn in | humidity % | barometer mb |
| 20260906224503 | 81 | 330 | 7.0 | 0.0 | 0.00 | 0.00 | 0.00 | 30 | 1023.0 |
| 20260906223004 | 84 | 30 | 3.0 | 0.0 | 0.00 | 0.00 | 0.00 | 26 | 1023.0 |
| 20260906221503 | 84 | 30 | 3.0 | 0.0 | 0.00 | 0.00 | 0.00 | 26 | 1023.0 |
| 20260906220004 | 84 | 40 | 1.0 | 0.0 | 0.00 | 0.00 | 0.00 | 25 | 1022.0 |
| 20260906213004 | 91 | 270 | 3.0 | 0.0 | 0.00 | 0.00 | 0.00 | 19 | 1022.0 |
| 20260906210004 | 91 | 270 | 7.0 | 0.0 | 0.00 | 0.00 | 0.00 | 19 | 1022.0 |
| 20260906204503 | 91 | 270 | 7.0 | 0.0 | 0.00 | 0.00 | 0.00 | 19 | 1022.0 |
| 20260906194503 | 93 | 270 | 8.0 | 0.0 | 0.00 | 0.00 | 0.00 | 20 | 1021.0 |
| 20260906193003 | 95 | 270 | 8.0 | 0.0 | 0.00 | 0.00 | 0.00 | 19 | 1021.0 |
| 20260906191504 | 95 | 270 | 8.0 | 0.0 | 0.00 | 0.00 | 0.00 | 19 | 1021.0 |
| 20260906183004 | 97 | 230 | 8.0 | 0.0 | 0.00 | 0.00 | 0.00 | 16 | 1021.0 |
| 20260906180004 | 99 | 220 | 8.0 | 0.0 | 0.00 | 0.00 | 0.00 | 15 | 1021.0 |
| 20260906174503 | 99 | 220 | 8.0 | 0.0 | 0.00 | 0.00 | 0.00 | 15 | 1021.0 |
| 20260906171503 | 99 | 250 | 8.0 | 0.0 | 0.00 | 0.00 | 0.00 | 17 | 1021.0 |
| 20260906170004 | 99 | 200 | 1.0 | 0.0 | 0.00 | 0.00 | 0.00 | 15 | 1021.0 |
| 20260906164503 | 99 | 200 | 1.0 | 0.0 | 0.00 | 0.00 | 0.00 | 15 | 1021.0 |
| 20260906161503 | 99 | 210 | 9.0 | 0.0 | 0.00 | 0.00 | 0.00 | 17 | 1021.0 |
| 20260906154503 | 99 | 190 | 1.0 | 0.0 | 0.00 | 0.00 | 0.00 | 17 | 1021.0 |
| 20260906144503 | 97 | 210 | 9.0 | 0.0 | 0.00 | 0.00 | 0.00 | 18 | 1022.0 |
| 20260906143003 | 97 | 200 | 8.0 | 0.0 | 0.00 | 0.00 | 0.00 | 19 | 1022.0 |
| 20260906141503 | 97 | 200 | 8.0 | 0.0 | 0.00 | 0.00 | 0.00 | 19 | 1022.0 |
| 20260906140003 | 95 | 0 | 6.0 | 0.0 | 0.00 | 0.00 | 0.00 | 20 | 1022.0 |
| 20260906134503 | 95 | 0 | 6.0 | 0.0 | 0.00 | 0.00 | 0.00 | 20 | 1022.0 |
| 20260906123004 | 93 | 170 | 6.0 | 0.0 | 0.00 | 0.00 | 0.00 | 21 | 1023.0 |
| 20260906114503 | 91 | 140 | 3.0 | 0.0 | 0.00 | 0.00 | 0.00 | 22 | 1024.0 |
| 20260906113003 | 88 | 180 | 3.0 | 0.0 | 0.00 | 0.00 | 0.00 | 23 | 1024.0 |
| 20260906111503 | 88 | 180 | 3.0 | 0.0 | 0.00 | 0.00 | 0.00 | 23 | 1024.0 |
| 20260906110003 | 86 | 130 | 5.0 | 0.0 | 0.00 | 0.00 | 0.00 | 27 | 1024.0 |
| 20260906104503 | 86 | 130 | 5.0 | 0.0 | 0.00 | 0.00 | 0.00 | 27 | 1024.0 |
| 20260906094504 | 82 | 0 | 2.0 | 0.0 | 0.00 | 0.00 | 0.00 | 30 | 1024.0 |
| 20260906090003 | 75 | 350 | 3.0 | 0.0 | 0.00 | 0.00 | 0.00 | 38 | 1024.0 |
| 20260906084503 | 75 | 350 | 3.0 | 0.0 | 0.00 | 0.00 | 0.00 | 38 | 1024.0 |
| 20260906081503 | 75 | 340 | 3.0 | 0.0 | 0.00 | 0.00 | 0.00 | 38 | 1024.0 |
| 20260906071503 | 72 | 330 | 3.0 | 0.0 | 0.00 | 0.00 | 0.00 | 43 | 1023.0 |
| 20260906070004 | 73 | 320 | 3.0 | 0.0 | 0.00 | 0.00 | 0.00 | 40 | 1023.0 |
| 20260906064504 | 73 | 320 | 3.0 | 0.0 | 0.00 | 0.00 | 0.00 | 40 | 1023.0 |
| 20260906063004 | 73 | 340 | 3.0 | 0.0 | 0.00 | 0.00 | 0.00 | 38 | 1023.0 |
| 20260906060003 | 75 | 350 | 3.0 | 0.0 | 0.00 | 0.00 | 0.00 | 38 | 1023.0 |
| 20260906054503 | 75 | 350 | 3.0 | 0.0 | 0.00 | 0.00 | 0.00 | 38 | 1023.0 |
| 20260906053003 | 77 | 300 | 6.0 | 0.0 | 0.00 | 0.00 | 0.00 | 36 | 1023.0 |
| 20260906044503 | 75 | 320 | 5.0 | 0.0 | 0.00 | 0.00 | 0.00 | 38 | 1023.0 |
| 20260906040004 | 77 | 320 | 7.0 | 0.0 | 0.00 | 0.00 | 0.00 | 36 | 1023.0 |
| 20260906034504 | 77 | 320 | 7.0 | 0.0 | 0.00 | 0.00 | 0.00 | 36 | 1023.0 |
| 20260906030004 | 79 | 350 | 3.0 | 0.0 | 0.00 | 0.00 | 0.00 | 34 | 1023.0 |
| 20260906024504 | 79 | 350 | 3.0 | 0.0 | 0.00 | 0.00 | 0.00 | 34 | 1023.0 |
| 20260906023004 | 79 | 10 | 3.0 | 0.0 | 0.00 | 0.00 | 0.00 | 34 | 1023.0 |
| 20260906021503 | 79 | 10 | 3.0 | 0.0 | 0.00 | 0.00 | 0.00 | 34 | 1023.0 |
| 20260906020004 | 81 | 0 | 1.0 | 0.0 | 0.00 | 0.00 | 0.00 | 32 | 1023.0 |
| 20260906014503 | 81 | 0 | 1.0 | 0.0 | 0.00 | 0.00 | 0.00 | 32 | 1023.0 |
| 20260906003003 | 79 | 100 | 3.0 | 0.0 | 0.00 | 0.00 | 0.00 | 34 | 1023.0 |